Location: Franzen
(48.6167°N, 15.3833°E)
Time: 20:03:35
(UTC+00:00)

Cosmos 1709 Rocket - Pass Details

Date: 29 July 2021
Orbit: 947 x 1002 km, 82.9° (Epoch: 22 September)

Event Time Altitude Azimuth Distance (km) Brightness Sun altitude
Exits shadow 22:15:27 21° 111° (ESE) 2,084 5.4 -22.0°
Maximum altitude 22:17:38 25° 82° (E) 1,894 5.4 -22.0°
Drops below altitude 10° 22:22:38 10° 30° (NNE) 2,782 7.0 -22.2°
Sets 22:25:37 0° 18° (NNE) 3,739 8.1 -22.3°
